Flight Track Log - Related Links

Times and Time Zones

All times are in EDT time to prevent confusion due to time zone crossing. See the DAL1981 flight status page for this flight to view local times or setup timezone preferences in your user account.

Time Position Orientation Groundspeed Altitude Reporting Facility
EDT Latitude Longitude Course Direction KTS MPH feet Rate Location/Type
06:11 42.7714 -73.8092 180° South 170 196 1,400  Level Boston Center
06:12 42.8272 -73.8611 326° Northwest 245 282 3,600 2,465 Climbing Boston Center
06:13 42.8825 -73.9333 316° Northwest 278 320 6,700 3,220 Climbing Boston Center
06:14 42.4111 -74.2734 198° South  Level Estimated
06:14 42.9250 -74.0167 305° West 278 320 10,200  Level Boston Center
06:15 42.3262 -74.3904 180° South  Level Estimated
06:15 42.9317 -74.1358 274° West 292 336 11,900  Level Boston Center
06:16 42.2413 -74.5072 180° South  Level Estimated
06:16 42.8600 -74.2019 214° Southwest 289 333 14,500  Level Boston Center
06:17 42.7686 -74.1794 170° South 304 350 15,700 1,650 Climbing Boston Center
06:18 42.6481 -74.1478 169° South 379 436 17,800 1,800 Climbing Boston Center
06:19 42.5339 -74.1167 169° South 413 475 19,300 1,650 Climbing Boston Center
06:20 42.4258 -74.0883 169° South 434 499 21,100 1,650 Climbing Boston Center
06:21 42.3014 -74.0569 169° South 447 514 22,600 1,450 Climbing Boston Center
06:22 42.1703 -74.0425 175° South 465 535 24,000 1,550 Climbing Boston Center
06:23 42.0367 -74.0503 182° South 470 541 25,700 1,750 Climbing Boston Center
06:24 41.8992 -74.0606 183° South 489 563 27,500 1,650 Climbing Boston Center
06:25 41.7772 -74.1189 200° South 478 550 29,000 1,367 Climbing Boston Center
06:27 41.5772 -74.2375 204° Southwest 494 568 31,100 1,170 Climbing New York Center
06:28 41.4519 -74.3139 205° Southwest 482 555 32,100 1,109 Climbing New York Center
06:29 41.3142 -74.3950 204° Southwest 494 568 33,300 908 Climbing New York Center
06:30 41.1914 -74.4656 203° Southwest 494 568 33,900 341 Climbing New York Center
06:31 41.0722 -74.5444 207° Southwest 484 557 34,000 50 Climbing New York Center
06:32 40.9728 -74.6572 221° Southwest 475 547 34,000  Level New York Center
06:33 40.8750 -74.7778 223° Southwest 475 547 34,000  Level New York Center
06:34 40.7772 -74.8925 222° Southwest 475 547 34,000  Level New York Center
06:35 40.6814 -75.0100 223° Southwest 475 547 34,000  Level New York Center
06:36 40.5853 -75.1269 223° Southwest 475 547 34,000  Level New York Center
06:37 40.4872 -75.2436 222° Southwest 480 552 34,000  Level New York Center
06:38 40.3911 -75.3572 222° Southwest 480 552 34,000  Level New York Center
06:39 40.2947 -75.4761 223° Southwest 480 552 34,000  Level New York Center
06:40 40.2064 -75.5978 226° Southwest 475 547 34,000  Level New York Center
06:41 40.1361 -75.7367 237° Southwest 470 541 34,000  Level New York Center
06:42 40.0656 -75.8783 237° Southwest 470 541 34,000  Level New York Center
06:44 39.9314 -76.1111 233° Southwest 481 554 34,000  Level Washington Center
06:45 39.8472 -76.2428 230° Southwest 474 545 34,000  Level Washington Center
06:46 39.7675 -76.3689 231° Southwest 467 537 34,000  Level Washington Center
06:47 39.6789 -76.4947 228° Southwest 467 537 34,000  Level Washington Center
06:48 39.5947 -76.6231 230° Southwest 472 543 34,000  Level Washington Center
06:49 39.5144 -76.7456 230° Southwest 472 543 34,000  Level Washington Center
06:50 39.4317 -76.8731 230° Southwest 472 543 34,000  Level Washington Center
06:51 39.3511 -76.9953 230° Southwest 467 537 34,000  Level Washington Center
06:52 39.2664 -77.1222 229° Southwest 467 537 34,000  Level Washington Center
06:53 39.1833 -77.2464 229° Southwest 467 537 34,000  Level Washington Center
06:54 39.1089 -77.3572 229° Southwest 461 531 34,000  Level Washington Center
06:55 39.0278 -77.4781 229° Southwest 461 531 34,000  Level Washington Center
06:56 38.9361 -77.6119 229° Southwest 455 524 34,000  Level Washington Center
06:57 38.8525 -77.7347 229° Southwest 455 524 34,000  Level Washington Center
06:58 38.7647 -77.8628 229° Southwest 464 534 34,000  Level Washington Center
06:59 38.6833 -77.9825 229° Southwest 464 534 34,000  Level Washington Center
07:00 38.6017 -78.1022 229° Southwest 459 528 34,000  Level Washington Center
07:01 38.5178 -78.2242 229° Southwest 454 522 34,000  Level Washington Center
07:02 38.4358 -78.3456 229° Southwest 454 522 34,000  Level Washington Center
07:03 38.3536 -78.4644 229° Southwest 454 522 34,000  Level Washington Center
07:04 38.2717 -78.5831 229° Southwest 454 522 34,000  Level Washington Center
07:05 38.2000 -78.6911 230° Southwest 449 517 34,000  Level Washington Center
07:06 38.1089 -78.8192 228° Southwest 449 517 34,000  Level Washington Center
07:07 38.0267 -78.9344 228° Southwest 454 522 34,000  Level Washington Center
07:08 37.9419 -79.0517 228° Southwest 454 522 34,000  Level Washington Center
07:09 37.8614 -79.1664 228° Southwest 449 517 34,000  Level Washington Center
07:10 37.7853 -79.2706 227° Southwest 449 517 34,000  Level Washington Center
07:11 37.6897 -79.3944 226° Southwest 454 522 34,000  Level Washington Center
07:12 37.6086 -79.5111 229° Southwest 454 522 34,000  Level Washington Center
07:13 37.5256 -79.6272 228° Southwest 448 516 34,000  Level Washington Center
07:14 37.4447 -79.7353 227° Southwest 448 516 34,000  Level Washington Center
07:15 37.3678 -79.8436 228° Southwest 455 524 34,000  Level Washington Center
07:16 37.2867 -79.9539 227° Southwest 449 517 34,000  Level Washington Center
07:17 37.2053 -80.0667 228° Southwest 449 517 34,000  Level Washington Center
07:18 37.1131 -80.1914 227° Southwest 454 522 34,000  Level Washington Center
07:19 37.0292 -80.3061 228° Southwest 454 522 34,000  Level Washington Center
07:20 36.9231 -80.4428 226° Southwest 437 503 34,000  Level Atlanta Center
07:21 36.8469 -80.5447 227° Southwest 442 509 34,000 -700 Level Atlanta Center
07:22 36.7625 -80.6572 227° Southwest 442 509 32,600 -1,900 Descending Atlanta Center
07:23 36.6781 -80.7697 227° Southwest 436 502 30,200 -1,300 Descending Atlanta Center
07:24 36.5914 -80.8844 227° Southwest 454 522 30,000 -100 Descending Atlanta Center
07:25 36.5025 -81.0042 227° Southwest 459 528 30,000  Level Atlanta Center
07:26 36.4136 -81.1208 227° Southwest 459 528 30,000  Level Atlanta Center
07:27 36.3244 -81.2375 227° Southwest 464 534 30,000  Level Atlanta Center
07:28 36.2375 -81.3564 228° Southwest 464 534 30,000  Level Atlanta Center
07:29 36.1400 -81.4806 226° Southwest 456 525 30,000  Level Atlanta Center
07:30 36.0547 -81.5886 226° Southwest 461 531 30,000  Level Atlanta Center
07:31 35.9631 -81.7067 226° Southwest 456 525 30,000  Level Atlanta Center
07:32 35.8775 -81.8169 226° Southwest 462 532 30,000  Level Atlanta Center
07:33 35.7897 -81.9267 225° Southwest 456 525 30,000  Level Atlanta Center
07:34 35.7039 -82.0364 226° Southwest 456 525 30,000  Level Atlanta Center
07:35 35.6222 -82.1456 227° Southwest 450 518 30,000  Level Atlanta Center
07:36 35.5364 -82.2547 226° Southwest 445 512 30,000  Level Atlanta Center
07:37 35.4544 -82.3611 227° Southwest 436 502 30,000 -900 Level Atlanta Center
07:38 35.3703 -82.4697 226° Southwest 431 496 28,200 -2,100 Descending Atlanta Center
07:39 35.2797 -82.5733 223° Southwest 437 503 25,800 -1,550 Descending Atlanta Center
07:40 35.1911 -82.6689 221° Southwest 458 527 25,100 -900 Descending Atlanta Center
07:41 35.0961 -82.7719 222° Southwest 464 534 24,000 -550 Descending Atlanta Center
07:42 35.0011 -82.8725 221° Southwest 464 534 24,000  Level Atlanta Center
07:43 34.8978 -82.9778 220° Southwest 459 528 24,000  Level Atlanta Center
07:44 34.8069 -83.0825 223° Southwest 454 522 24,000  Level Atlanta Center
07:45 34.7117 -83.1797 220° Southwest 449 517 24,000  Level Atlanta Center
07:46 34.6206 -83.2789 222° Southwest 455 524 24,000  Level Atlanta Center
07:47 34.5250 -83.3783 221° Southwest 450 518 24,000 -550 Level Atlanta Center
07:48 34.4336 -83.4797 222° Southwest 455 524 22,900 3,000 Descending Atlanta Center
07:49 34.3486 -83.5658 220° Southwest 450 518 30,000 -2,650 Climbing Atlanta Center
07:50 34.2592 -83.6617 222° Southwest 445 512 17,600 -7,600 Descending Atlanta Center
07:51 34.1739 -83.7525 221° Southwest 430 495 14,800 -1,750 Descending Atlanta Center
07:52 34.0967 -83.8306 220° Southwest 397 457 14,100 -436 Descending Atlanta Center
07:53 34.0333 -83.9000 222° Southwest 314 361 14,000 -621 Descending Atlanta TRACON
07:54 33.9667 -84.0000 231° Southwest 313 360 12,900 -905 Descending Atlanta TRACON
07:55 33.9167 -84.0667 228° Southwest 309 356 12,100 -450 Descending Atlanta TRACON
07:56 33.8667 -84.1500 234° Southwest 304 350 12,000 -48 Descending Atlanta TRACON
07:57 33.8000 -84.2333 226° Southwest 306 352 12,000  Level Atlanta TRACON
07:58 33.7500 -84.3167 234° Southwest 277 319 12,000 -789 Level Atlanta TRACON
07:59 33.7333 -84.4000 256° West 286 329 10,500 -1,632 Descending Atlanta TRACON
08:00 33.7333 -84.4833 270° West 271 312 8,900 -1,476 Descending Atlanta TRACON
08:01 33.7333 -84.5833 270° West 260 299 7,400 -1,333 Descending Atlanta TRACON
08:02 33.7333 -84.6667 270° West 246 283 6,100 -1,200 Descending Atlanta TRACON
08:03 33.7333 -84.7500 270° West 249 287 5,000 -550 Descending Atlanta TRACON
08:04 33.7333 -84.8333 270° West 249 287 5,000  Level Atlanta TRACON
08:05 33.7333 -84.9000 270° West 246 283 5,000 50 Level Atlanta TRACON
08:06 33.7000 -84.9500 231° Southwest 196 226 5,100 53 Climbing Atlanta TRACON
08:07 33.6667 -84.9167 140° Southeast 163 188 5,100 -50 Level Atlanta TRACON
08:08 33.6500 -84.8667 112° Southeast 161 185 5,000 -48 Descending Atlanta TRACON
08:09 33.6500 -84.8167 90° East 160 184 5,000  Level Atlanta TRACON
08:10 33.6500 -84.7667 90° East 161 185 5,000  Level Atlanta TRACON
08:11 33.6500 -84.7000 90° East 162 186 5,000 -190 Level Atlanta TRACON
08:12 33.6500 -84.6500 90° East 167 192 4,600 -700 Descending Atlanta TRACON
08:13 33.6500 -84.6000 90° East 160 184 3,600 -950 Descending Atlanta TRACON
08:14 33.6500 -84.5500 90° East 162 186 2,700 -850 Descending Atlanta TRACON
08:15 33.6500 -84.5000 90° East 133 153 1,900 -800 Descending Atlanta TRACON

Login

Don't have an account? Register now (free) for customized features, flight alerts, and more!